Weather in Coburg

Germany     50°15′34″N   10°57′36″E
temp.,
°C
wind,
m/s
gust,
m/s
humid.,
%
clouds,
%
prec.,
mm/h
press.,
hPa
HPBL,
m
14 may, fri
fri1423:00+9s0095100 0.1 100711
02:00+8sw1498100 0.1 1007128
05:00+8sw2598100 0.0 1007287
08:00+9wsw3596100 0.0 1007355
11:00+10wsw3591100 0.1 1008585
14:00+13wnw357995 1.8 1008978
17:00+17wsw254765 0.5 10072054
20:00+11w37805 0.9 1008230
15 may, sat
sat1523:00+7sw11945 0.0 101013
02:00+5ssw11975 0.0 101111
05:00+5sse1198100 0.0 101018
08:00+8ssw2689100 0.0 1010403
11:00+12ssw467898 0.6 10091230
14:00+14ssw4664100 1.4 10071509
17:00+10sw5988100 1.6 10071135
20:00+8sw31095100 2.9 1007913
16 may, sun
sun1623:00+7sw51096100 1.9 1007735
02:00+7sw41095100 2.1 1007782
05:00+7ssw399799 0.1 1007522
08:00+7ssw3897100 0.2 1007629
11:00+8sw3996100 1.9 1007748
14:00+12wsw5986100 3.6 10051266
17:00+11sw588860 1.8 10051064
20:00+9sw379218 3.6 1005311
17 may, mon
mon1723:00+6s229870 0.1 100639
02:00+6s2598100 0.1 1006131
05:00+8sw61296100 0.4 1006795
08:00+8sw71394100 0.9 10071190
11:00+8sw6129494 1.9 10091078
14:00+8sw61194100 2.4 10101285
17:00+8wsw6119296 0.3 10101095
20:00+9wsw41092100 0.7 1010857
18 may, tue
tue1823:00+7sw31098100 0.3 1011545
02:00+7sw31098100 0.4 1011529
05:00+7wsw41097100 0.1 1012701
08:00+7wsw4996100 0.6 1014928
11:00+8wsw51096100 0.8 10151103
14:00+11w7117135 1.6 10161651
17:00+12w610705 1.1 10161567
20:00+9wsw498061 1.7 1018656